Location: B?dimalle
(17.1788°N, 80.5377°E)
Time: 10:49:57
(UTC+00:00)

Tiros 1 despin weight - Pass Details

Date: 17 February 2026
Orbit: 556 x 593 km, 48.2° (Epoch: 10 March)

Event Time Altitude Azimuth Distance (km) Brightness Sun altitude
Rises 17:23:02 0° 320° (NW) 2,739 - -67.9°
Reaches altitude 10° 17:25:16 10° 322° (NW) 1,848 - -68.4°
Maximum altitude 17:29:29 76° 48° (NE) 585 - -69.4°
Drops below altitude 10° 17:33:46 10° 134° (SE) 1,869 - -70.4°
Sets 17:36:03 0° 136° (SE) 2,773 - -70.9°
